GEFSNE_prec_meanprecacc_288.txt.gz
Total_Precipitation_Accumulation
2.74 3.00 2.87 2.73 2.76 2.76 3.04 3.36 3.39 3.00 2.68 2.47 2.29 2.20 2.17 2.13 2.23 2.05 2.00 1.99 1.77 1.61 1.51 1.42 1.38 1.37 1.47 1.61 1.83 2.07 2.26 2.40 2.53 2.65 2.84 3.07 3.32 3.57
2.67 2.82 2.79 2.72 2.94 2.94 3.04 3.28 3.48 3.42 2.87 2.65 2.54 2.22 2.25 1.88 2.03 1.91 1.87 1.84 1.61 1.49 1.42 1.39 1.37 1.36 1.36 1.39 1.48 1.62 1.80 1.95 2.07 2.17 2.22 2.28 2.36 2.53
2.26 2.37 2.39 2.64 2.85 2.81 2.96 3.09 3.30 3.51 3.13 2.93 2.95 2.66 2.60 2.32 2.09 1.88 1.64 1.60 1.48 1.47 1.34 1.27 1.25 1.25 1.28 1.26 1.24 1.31 1.44 1.57 1.68 1.84 2.01 2.12 2.15 2.20
2.20 2.29 2.19 2.38 2.50 2.56 2.75 2.89 3.14 3.50 3.33 3.10 3.03 2.90 2.78 2.53 2.30 2.05 1.61 1.39 1.42 1.53 1.36 1.21 1.16 1.14 1.16 1.16 1.10 1.08 1.11 1.17 1.24 1.38 1.58 1.75 1.88 2.01
2.04 1.96 1.90 2.09 2.14 2.31 2.46 2.49 2.67 3.07 3.12 2.85 2.76 2.97 2.82 2.54 2.53 2.19 1.92 1.84 1.41 1.41 1.34 1.17 1.11 1.05 1.05 1.10 1.10 1.04 1.01 1.02 1.06 1.18 1.37 1.54 1.66 1.74
1.76 1.64 1.66 1.82 1.84 1.99 2.06 2.24 2.43 2.56 2.76 2.73 2.64 2.75 2.76 2.66 2.80 2.56 2.34 2.17 1.81 1.49 1.50 1.26 1.15 1.09 1.06 1.04 1.05 1.07 1.09 1.08 1.09 1.15 1.22 1.31 1.46 1.57
1.54 1.40 1.34 1.36 1.43 1.57 1.55 1.83 2.12 2.25 2.33 2.45 2.47 2.57 2.77 2.90 2.75 2.72 2.54 2.35 2.17 1.98 1.94 1.55 1.24 1.09 1.07 1.07 1.09 1.12 1.15 1.16 1.18 1.25 1.35 1.41 1.46 1.53
1.52 1.50 1.33 1.22 1.20 1.25 1.28 1.37 1.58 1.72 1.93 2.19 2.28 2.37 2.60 2.87 2.92 2.92 2.81 2.59 2.36 2.17 2.30 2.24 1.86 1.58 1.37 1.14 1.13 1.15 1.22 1.29 1.33 1.39 1.48 1.62 1.74 1.75
1.48 1.47 1.23 1.12 1.18 1.15 1.21 1.21 1.28 1.34 1.45 1.72 1.86 1.92 2.18 2.48 2.82 2.86 2.94 2.77 2.52 2.46 2.56 2.59 2.64 2.39 1.80 1.45 1.37 1.20 1.22 1.32 1.38 1.44 1.51 1.55 1.71 1.87
1.41 1.45 1.44 1.38 1.28 1.32 1.34 1.27 1.16 1.17 1.20 1.16 1.26 1.50 1.69 1.94 2.32 2.49 2.81 3.00 2.84 2.72 2.73 2.80 2.80 3.01 2.51 1.96 1.78 1.51 1.43 1.45 1.51 1.52 1.55 1.63 1.70 1.78
1.45 1.48 1.47 1.40 1.40 1.37 1.35 1.34 1.22 1.14 1.13 1.12 1.11 1.25 1.47 1.62 1.91 2.23 2.52 2.74 2.84 2.89 2.92 2.99 2.89 3.03 3.30 2.82 2.12 1.76 1.51 1.45 1.49 1.54 1.60 1.71 1.78 1.77
1.55 1.55 1.46 1.38 1.47 1.36 1.22 1.27 1.26 1.27 1.32 1.28 1.26 1.28 1.33 1.50 1.78 2.01 2.28 2.56 2.60 2.69 2.53 2.51 2.54 2.68 3.11 3.28 2.87 2.24 1.76 1.59 1.49 1.48 1.50 1.62 1.75 1.61
1.61 1.64 1.61 1.53 1.28 1.19 1.15 1.18 1.27 1.35 1.42 1.44 1.44 1.47 1.55 1.60 1.66 1.83 2.08 2.32 2.41 2.22 1.99 2.12 2.31 2.43 2.50 2.65 2.79 2.71 2.31 1.97 1.76 1.62 1.56 1.53 1.56 1.52
1.88 1.89 1.84 1.66 1.38 1.24 1.14 1.19 1.27 1.23 1.27 1.38 1.36 1.35 1.43 1.51 1.59 1.75 1.94 2.05 2.12 2.11 2.05 2.17 2.32 2.35 2.43 2.46 2.50 2.52 2.52 2.34 2.14 2.02 1.95 1.92 1.72 1.63
2.12 2.14 2.01 1.77 1.52 1.30 1.22 1.20 1.16 1.10 1.15 1.22 1.18 1.15 1.21 1.31 1.41 1.58 1.76 1.94 1.99 1.92 1.91 2.02 2.14 2.17 2.28 2.35 2.26 2.15 2.21 2.27 2.25 2.23 2.26 2.25 2.10 1.93
2.21 2.15 2.04 1.84 1.57 1.42 1.33 1.22 1.10 1.17 1.20 1.17 1.18 1.18 1.26 1.37 1.49 1.57 1.71 1.86 2.00 1.93 1.87 1.89 1.96 2.08 2.05 1.90 1.82 1.69 1.69 1.80 1.96 2.10 2.30 2.51 2.55 2.45
2.32 2.16 2.04 1.83 1.65 1.57 1.49 1.38 1.31 1.30 1.24 1.20 1.23 1.22 1.24 1.31 1.39 1.44 1.54 1.61 1.67 1.69 1.71 1.76 1.88 2.00 1.99 1.92 1.80 1.62 1.56 1.49 1.53 1.84 2.17 2.41 2.43 2.29
1.79 1.74 1.77 1.72 1.63 1.56 1.49 1.41 1.35 1.29 1.26 1.25 1.24 1.22 1.18 1.19 1.28 1.39 1.50 1.51 1.48 1.47 1.54 1.60 1.82 2.03 2.06 1.89 1.57 1.45 1.44 1.40 1.40 1.61 1.81 1.91 1.89 1.78
1.47 1.52 1.48 1.47 1.44 1.40 1.37 1.30 1.24 1.23 1.27 1.29 1.24 1.24 1.23 1.24 1.27 1.38 1.50 1.53 1.47 1.43 1.53 1.68 1.82 1.96 1.93 1.71 1.48 1.22 1.24 1.28 1.41 1.59 1.68 1.66 1.56 1.42
1.35 1.41 1.42 1.41 1.39 1.38 1.38 1.33 1.32 1.33 1.37 1.38 1.35 1.34 1.35 1.38 1.41 1.43 1.50 1.55 1.51 1.49 1.57 1.67 1.70 1.73 1.75 1.66 1.56 1.40 1.17 1.22 1.31 1.42 1.50 1.52 1.43 1.27
1.44 1.49 1.49 1.46 1.45 1.47 1.47 1.43 1.43 1.41 1.37 1.40 1.40 1.39 1.38 1.41 1.48 1.51 1.58 1.65 1.59 1.53 1.50 1.49 1.56 1.67 1.80 1.99 1.88 1.61 1.40 1.28 1.31 1.35 1.43 1.53 1.53 1.46
1.39 1.44 1.45 1.44 1.46 1.50 1.47 1.43 1.44 1.41 1.39 1.38 1.36 1.37 1.39 1.38 1.42 1.50 1.55 1.57 1.54 1.48 1.42 1.44 1.63 1.82 1.90 1.96 1.86 1.70 1.62 1.53 1.47 1.41 1.33 1.26 1.28 1.30
1.37 1.42 1.40 1.36 1.38 1.38 1.31 1.29 1.34 1.39 1.41 1.42 1.40 1.38 1.37 1.35 1.35 1.45 1.51 1.53 1.53 1.55 1.56 1.62 1.69 1.78 1.83 1.85 1.89 1.82 1.68 1.62 1.61 1.59 1.49 1.28 1.00 0.87

GEFSNE_prec_meanprecacc_294.txt.gz
Total_Precipitation_Accumulation
2.83 3.09 2.95 2.79 2.82 2.81 3.10 3.43 3.45 3.06 2.73 2.51 2.33 2.24 2.21 2.18 2.27 2.09 2.04 2.02 1.79 1.63 1.52 1.43 1.39 1.38 1.47 1.62 1.84 2.08 2.27 2.42 2.56 2.69 2.89 3.12 3.38 3.64
2.73 2.88 2.85 2.77 3.00 2.99 3.10 3.37 3.58 3.52 2.94 2.69 2.58 2.26 2.30 1.93 2.08 1.95 1.91 1.87 1.64 1.51 1.43 1.40 1.38 1.36 1.37 1.40 1.49 1.63 1.81 1.96 2.10 2.20 2.25 2.31 2.39 2.56
2.31 2.42 2.43 2.69 2.90 2.86 3.01 3.17 3.39 3.62 3.22 2.97 3.02 2.73 2.67 2.39 2.15 1.93 1.69 1.63 1.51 1.48 1.36 1.28 1.26 1.25 1.28 1.27 1.25 1.32 1.45 1.58 1.70 1.86 2.03 2.14 2.16 2.22
2.24 2.34 2.24 2.44 2.57 2.62 2.82 2.97 3.23 3.61 3.43 3.16 3.09 2.97 2.84 2.59 2.36 2.11 1.66 1.43 1.46 1.57 1.39 1.24 1.18 1.16 1.18 1.17 1.11 1.08 1.11 1.18 1.25 1.38 1.59 1.76 1.89 2.03
2.08 2.00 1.95 2.14 2.20 2.36 2.53 2.55 2.75 3.15 3.22 2.93 2.82 3.04 2.87 2.62 2.61 2.27 2.00 1.92 1.48 1.49 1.39 1.20 1.13 1.07 1.07 1.11 1.11 1.05 1.02 1.03 1.07 1.18 1.38 1.55 1.68 1.76
1.81 1.69 1.71 1.88 1.91 2.05 2.11 2.31 2.50 2.64 2.84 2.80 2.71 2.83 2.84 2.75 2.89 2.65 2.44 2.28 1.93 1.59 1.57 1.31 1.18 1.12 1.08 1.06 1.07 1.09 1.10 1.09 1.09 1.15 1.23 1.33 1.49 1.59
1.58 1.44 1.38 1.40 1.47 1.61 1.59 1.87 2.17 2.30 2.38 2.51 2.52 2.62 2.84 2.97 2.84 2.83 2.67 2.50 2.29 2.08 2.03 1.62 1.31 1.13 1.10 1.09 1.10 1.14 1.18 1.18 1.20 1.26 1.36 1.41 1.46 1.54
1.56 1.53 1.36 1.25 1.23 1.28 1.31 1.39 1.60 1.76 1.97 2.23 2.31 2.41 2.66 2.95 3.01 3.01 2.91 2.69 2.47 2.27 2.38 2.32 1.93 1.64 1.41 1.17 1.15 1.17 1.24 1.32 1.36 1.42 1.51 1.63 1.75 1.75
1.51 1.50 1.25 1.13 1.20 1.16 1.23 1.22 1.29 1.37 1.49 1.77 1.91 1.98 2.26 2.58 2.91 2.96 3.03 2.85 2.59 2.52 2.61 2.64 2.68 2.42 1.82 1.46 1.39 1.22 1.25 1.34 1.40 1.46 1.54 1.57 1.73 1.88
1.43 1.47 1.46 1.39 1.30 1.33 1.35 1.28 1.18 1.20 1.23 1.19 1.31 1.56 1.78 2.05 2.45 2.62 2.90 3.05 2.88 2.75 2.77 2.83 2.84 3.04 2.53 1.98 1.80 1.54 1.46 1.48 1.53 1.54 1.57 1.65 1.72 1.80
1.46 1.50 1.48 1.41 1.42 1.39 1.37 1.36 1.23 1.16 1.15 1.14 1.14 1.29 1.52 1.67 1.96 2.28 2.57 2.79 2.88 2.94 2.98 3.03 2.93 3.06 3.34 2.86 2.15 1.79 1.54 1.47 1.51 1.56 1.61 1.73 1.80 1.80
1.56 1.56 1.48 1.40 1.49 1.38 1.24 1.29 1.28 1.30 1.34 1.30 1.28 1.30 1.35 1.52 1.80 2.05 2.32 2.61 2.66 2.75 2.59 2.57 2.59 2.73 3.16 3.32 2.90 2.25 1.78 1.61 1.51 1.49 1.51 1.63 1.78 1.63
1.62 1.66 1.64 1.55 1.29 1.20 1.17 1.19 1.29 1.37 1.45 1.46 1.46 1.49 1.57 1.62 1.68 1.86 2.12 2.37 2.45 2.28 2.05 2.19 2.37 2.48 2.55 2.69 2.82 2.73 2.33 1.99 1.77 1.63 1.58 1.55 1.59 1.54
1.89 1.90 1.86 1.68 1.39 1.26 1.16 1.21 1.30 1.25 1.29 1.40 1.38 1.36 1.44 1.52 1.60 1.78 1.98 2.10 2.17 2.16 2.11 2.24 2.38 2.40 2.48 2.52 2.55 2.57 2.56 2.37 2.18 2.05 1.98 1.96 1.76 1.66
2.13 2.15 2.03 1.79 1.54 1.32 1.24 1.22 1.19 1.13 1.16 1.24 1.20 1.17 1.24 1.33 1.42 1.60 1.80 1.99 2.04 1.98 1.98 2.09 2.21 2.23 2.35 2.42 2.34 2.22 2.27 2.33 2.30 2.27 2.30 2.30 2.15 1.98
2.22 2.16 2.05 1.86 1.60 1.44 1.35 1.23 1.12 1.18 1.21 1.19 1.19 1.20 1.29 1.40 1.50 1.58 1.73 1.89 2.04 2.00 1.94 1.96 2.02 2.14 2.12 1.98 1.91 1.78 1.78 1.87 2.01 2.15 2.35 2.57 2.61 2.50
2.33 2.17 2.05 1.85 1.68 1.59 1.50 1.40 1.32 1.31 1.25 1.21 1.24 1.24 1.27 1.33 1.41 1.45 1.56 1.64 1.71 1.74 1.78 1.83 1.94 2.05 2.05 1.98 1.86 1.67 1.62 1.54 1.58 1.89 2.22 2.46 2.48 2.35
1.81 1.75 1.79 1.74 1.66 1.59 1.52 1.44 1.38 1.32 1.29 1.27 1.26 1.24 1.20 1.21 1.30 1.41 1.52 1.54 1.51 1.52 1.59 1.66 1.87 2.07 2.11 1.93 1.60 1.49 1.47 1.43 1.43 1.65 1.85 1.95 1.93 1.82
1.50 1.53 1.50 1.49 1.47 1.44 1.42 1.35 1.28 1.27 1.31 1.32 1.27 1.27 1.26 1.27 1.30 1.41 1.53 1.57 1.51 1.48 1.58 1.72 1.87 1.99 1.97 1.75 1.50 1.25 1.27 1.31 1.44 1.62 1.71 1.69 1.59 1.45
1.39 1.44 1.44 1.43 1.41 1.42 1.43 1.37 1.36 1.37 1.40 1.41 1.39 1.39 1.41 1.42 1.44 1.46 1.54 1.59 1.55 1.53 1.61 1.71 1.74 1.77 1.78 1.68 1.59 1.42 1.19 1.24 1.33 1.46 1.54 1.56 1.46 1.31
1.49 1.53 1.54 1.53 1.51 1.54 1.53 1.50 1.49 1.45 1.41 1.45 1.45 1.45 1.43 1.45 1.51 1.55 1.61 1.69 1.63 1.57 1.53 1.53 1.60 1.71 1.84 2.02 1.90 1.62 1.42 1.30 1.34 1.38 1.46 1.58 1.57 1.50
1.44 1.49 1.53 1.56 1.57 1.56 1.52 1.48 1.49 1.46 1.43 1.42 1.40 1.41 1.44 1.42 1.46 1.54 1.58 1.61 1.58 1.52 1.46 1.48 1.67 1.87 1.95 2.01 1.89 1.73 1.65 1.56 1.50 1.44 1.37 1.30 1.33 1.35
1.41 1.47 1.48 1.46 1.45 1.41 1.34 1.31 1.37 1.42 1.44 1.45 1.42 1.41 1.41 1.39 1.39 1.48 1.54 1.56 1.57 1.59 1.60 1.66 1.74 1.83 1.88 1.90 1.93 1.87 1.73 1.65 1.64 1.62 1.53 1.32 1.03 0.90

GEFSNE_prec_meanprecacc_300.txt.gz
Total_Precipitation_Accumulation
2.89 3.17 3.02 2.86 2.87 2.86 3.15 3.46 3.47 3.07 2.74 2.53 2.34 2.25 2.24 2.20 2.31 2.14 2.09 2.09 1.88 1.72 1.58 1.47 1.42 1.40 1.49 1.64 1.86 2.10 2.29 2.44 2.58 2.71 2.92 3.16 3.43 3.70
2.78 2.93 2.90 2.84 3.05 3.05 3.15 3.41 3.61 3.54 2.95 2.71 2.59 2.28 2.32 1.96 2.13 2.01 1.97 1.94 1.73 1.60 1.49 1.44 1.41 1.39 1.39 1.42 1.51 1.64 1.82 1.97 2.11 2.21 2.26 2.32 2.40 2.58
2.34 2.45 2.46 2.72 2.93 2.89 3.05 3.21 3.45 3.68 3.26 3.00 3.04 2.76 2.70 2.42 2.19 1.99 1.75 1.70 1.57 1.54 1.41 1.33 1.30 1.29 1.31 1.29 1.27 1.33 1.46 1.58 1.70 1.86 2.04 2.14 2.17 2.22
2.27 2.37 2.26 2.46 2.58 2.64 2.84 3.00 3.27 3.68 3.49 3.20 3.14 3.02 2.88 2.64 2.42 2.18 1.75 1.50 1.52 1.64 1.46 1.31 1.24 1.20 1.21 1.20 1.13 1.11 1.14 1.20 1.27 1.40 1.60 1.77 1.90 2.04
2.13 2.04 1.98 2.17 2.21 2.38 2.55 2.58 2.78 3.19 3.27 2.97 2.86 3.08 2.92 2.68 2.70 2.36 2.07 1.98 1.53 1.54 1.46 1.29 1.22 1.14 1.13 1.16 1.14 1.07 1.04 1.05 1.09 1.21 1.40 1.57 1.69 1.77
1.86 1.74 1.75 1.91 1.93 2.07 2.13 2.34 2.54 2.67 2.88 2.83 2.73 2.85 2.88 2.79 2.94 2.71 2.50 2.33 1.97 1.62 1.62 1.37 1.25 1.18 1.13 1.10 1.10 1.11 1.12 1.11 1.11 1.17 1.25 1.35 1.51 1.61
1.63 1.49 1.42 1.44 1.50 1.65 1.62 1.90 2.20 2.31 2.40 2.53 2.54 2.63 2.87 3.00 2.87 2.86 2.71 2.54 2.32 2.10 2.05 1.64 1.33 1.17 1.14 1.14 1.15 1.18 1.21 1.22 1.23 1.29 1.38 1.44 1.49 1.56
1.60 1.57 1.39 1.28 1.27 1.32 1.34 1.42 1.63 1.78 1.98 2.25 2.33 2.43 2.68 2.97 3.04 3.04 2.93 2.71 2.49 2.29 2.40 2.33 1.95 1.66 1.44 1.20 1.19 1.21 1.28 1.36 1.40 1.46 1.54 1.67 1.78 1.78
1.56 1.54 1.29 1.16 1.23 1.19 1.26 1.26 1.32 1.40 1.52 1.79 1.92 2.00 2.28 2.60 2.94 2.99 3.06 2.87 2.61 2.54 2.63 2.65 2.69 2.44 1.85 1.50 1.43 1.26 1.30 1.40 1.46 1.51 1.57 1.61 1.76 1.93
1.48 1.51 1.49 1.41 1.32 1.36 1.39 1.31 1.20 1.22 1.26 1.21 1.32 1.58 1.80 2.07 2.47 2.64 2.92 3.07 2.90 2.78 2.79 2.85 2.86 3.07 2.56 2.01 1.84 1.58 1.50 1.51 1.56 1.57 1.60 1.67 1.74 1.84
1.51 1.54 1.51 1.43 1.44 1.42 1.40 1.38 1.25 1.19 1.18 1.17 1.17 1.31 1.55 1.70 1.98 2.30 2.60 2.81 2.90 2.96 3.01 3.06 2.96 3.10 3.37 2.89 2.18 1.82 1.57 1.49 1.53 1.57 1.62 1.74 1.82 1.83
1.60 1.59 1.51 1.43 1.52 1.42 1.27 1.32 1.30 1.32 1.37 1.32 1.30 1.33 1.38 1.55 1.84 2.07 2.35 2.64 2.68 2.77 2.61 2.61 2.62 2.76 3.19 3.34 2.92 2.27 1.80 1.64 1.54 1.50 1.53 1.65 1.79 1.66
1.64 1.67 1.66 1.58 1.32 1.23 1.19 1.21 1.31 1.39 1.46 1.48 1.47 1.50 1.59 1.64 1.71 1.90 2.16 2.40 2.48 2.31 2.09 2.24 2.42 2.52 2.58 2.72 2.85 2.75 2.35 2.01 1.80 1.66 1.60 1.58 1.62 1.57
1.92 1.92 1.88 1.71 1.42 1.28 1.18 1.23 1.32 1.27 1.30 1.42 1.39 1.38 1.46 1.54 1.63 1.82 2.02 2.14 2.20 2.18 2.14 2.27 2.42 2.43 2.51 2.55 2.58 2.61 2.60 2.42 2.23 2.09 2.02 2.00 1.80 1.70
2.15 2.18 2.06 1.82 1.56 1.34 1.26 1.24 1.21 1.14 1.17 1.25 1.21 1.18 1.26 1.36 1.45 1.64 1.84 2.02 2.07 2.00 2.00 2.12 2.24 2.26 2.38 2.45 2.37 2.25 2.32 2.40 2.38 2.35 2.37 2.35 2.20 2.02
2.25 2.19 2.09 1.89 1.62 1.46 1.37 1.26 1.14 1.20 1.22 1.20 1.20 1.22 1.31 1.42 1.54 1.62 1.78 1.93 2.08 2.03 1.97 2.00 2.06 2.18 2.16 2.01 1.94 1.80 1.80 1.93 2.07 2.21 2.41 2.62 2.65 2.54
2.37 2.21 2.09 1.88 1.71 1.62 1.53 1.43 1.35 1.32 1.27 1.23 1.26 1.26 1.28 1.35 1.44 1.49 1.60 1.67 1.74 1.77 1.81 1.89 2.01 2.13 2.11 2.03 1.90 1.70 1.65 1.60 1.65 1.94 2.26 2.50 2.51 2.38
1.84 1.78 1.82 1.77 1.68 1.61 1.55 1.47 1.41 1.34 1.31 1.30 1.30 1.27 1.23 1.24 1.33 1.44 1.55 1.57 1.54 1.55 1.64 1.73 1.95 2.15 2.18 2.01 1.66 1.54 1.53 1.50 1.50 1.70 1.89 1.98 1.96 1.84
1.52 1.55 1.52 1.51 1.49 1.47 1.47 1.41 1.33 1.31 1.35 1.37 1.32 1.31 1.31 1.31 1.34 1.46 1.58 1.62 1.56 1.54 1.65 1.80 1.95 2.08 2.05 1.82 1.58 1.32 1.33 1.37 1.49 1.66 1.75 1.73 1.62 1.47
1.41 1.46 1.47 1.45 1.44 1.47 1.50 1.45 1.42 1.42 1.45 1.47 1.45 1.46 1.49 1.49 1.50 1.52 1.59 1.64 1.60 1.59 1.67 1.78 1.82 1.86 1.86 1.75 1.64 1.47 1.23 1.29 1.37 1.50 1.58 1.59 1.48 1.32
1.50 1.55 1.56 1.57 1.58 1.61 1.59 1.56 1.55 1.50 1.46 1.51 1.51 1.51 1.50 1.50 1.56 1.59 1.66 1.73 1.67 1.60 1.56 1.56 1.64 1.77 1.89 2.08 1.94 1.65 1.45 1.34 1.38 1.42 1.50 1.61 1.59 1.52
1.45 1.50 1.55 1.59 1.63 1.63 1.57 1.53 1.55 1.53 1.50 1.50 1.48 1.48 1.49 1.46 1.49 1.57 1.61 1.63 1.61 1.55 1.48 1.51 1.72 1.94 2.01 2.06 1.94 1.77 1.69 1.61 1.55 1.50 1.41 1.33 1.36 1.37
1.43 1.49 1.50 1.48 1.47 1.43 1.36 1.34 1.40 1.45 1.48 1.49 1.46 1.44 1.45 1.43 1.43 1.51 1.57 1.59 1.60 1.62 1.62 1.68 1.77 1.88 1.93 1.95 1.99 1.93 1.78 1.71 1.70 1.67 1.57 1.36 1.07 0.93

GEFSNE_prec_meanprecacc_306.txt.gz
Total_Precipitation_Accumulation
2.94 3.21 3.07 2.90 2.91 2.90 3.18 3.49 3.50 3.09 2.76 2.54 2.36 2.28 2.26 2.22 2.33 2.16 2.12 2.14 1.92 1.76 1.62 1.50 1.44 1.42 1.51 1.66 1.89 2.14 2.33 2.48 2.62 2.74 2.94 3.18 3.45 3.74
2.84 2.98 2.94 2.88 3.08 3.07 3.18 3.44 3.65 3.58 2.97 2.72 2.61 2.29 2.34 1.97 2.14 2.02 1.99 1.97 1.76 1.63 1.53 1.48 1.44 1.42 1.42 1.45 1.54 1.68 1.85 2.00 2.13 2.23 2.28 2.33 2.42 2.59
2.41 2.50 2.50 2.75 2.96 2.92 3.08 3.25 3.49 3.73 3.31 3.03 3.06 2.77 2.72 2.44 2.20 2.00 1.77 1.72 1.60 1.57 1.44 1.36 1.34 1.33 1.35 1.33 1.31 1.37 1.50 1.62 1.73 1.88 2.05 2.16 2.19 2.23
2.32 2.42 2.29 2.49 2.62 2.69 2.89 3.04 3.30 3.71 3.54 3.26 3.18 3.05 2.90 2.66 2.44 2.20 1.76 1.53 1.55 1.67 1.49 1.35 1.29 1.25 1.26 1.24 1.18 1.15 1.18 1.25 1.31 1.44 1.62 1.79 1.92 2.06
2.16 2.09 2.03 2.22 2.27 2.45 2.62 2.64 2.84 3.24 3.32 3.02 2.90 3.12 2.97 2.75 2.76 2.42 2.11 2.01 1.56 1.58 1.50 1.32 1.26 1.18 1.17 1.20 1.18 1.11 1.07 1.08 1.12 1.23 1.42 1.59 1.71 1.79
1.89 1.78 1.80 1.97 1.98 2.14 2.21 2.41 2.60 2.73 2.93 2.89 2.78 2.90 2.91 2.82 2.97 2.75 2.55 2.38 2.01 1.65 1.64 1.39 1.27 1.20 1.16 1.13 1.13 1.14 1.15 1.14 1.13 1.19 1.26 1.37 1.53 1.64
1.66 1.53 1.48 1.49 1.56 1.71 1.68 1.96 2.26 2.36 2.44 2.57 2.59 2.68 2.90 3.03 2.90 2.89 2.73 2.56 2.35 2.12 2.06 1.65 1.35 1.18 1.15 1.15 1.17 1.21 1.24 1.24 1.25 1.31 1.40 1.46 1.52 1.60
1.63 1.61 1.44 1.34 1.32 1.38 1.40 1.48 1.69 1.83 2.03 2.29 2.37 2.47 2.71 2.99 3.07 3.07 2.96 2.73 2.51 2.32 2.42 2.36 1.96 1.68 1.45 1.21 1.21 1.23 1.30 1.39 1.43 1.49 1.58 1.70 1.82 1.82
1.60 1.58 1.33 1.21 1.28 1.23 1.32 1.31 1.38 1.45 1.57 1.83 1.96 2.03 2.30 2.63 2.98 3.03 3.09 2.90 2.65 2.58 2.67 2.69 2.73 2.47 1.87 1.52 1.45 1.27 1.32 1.43 1.49 1.54 1.61 1.64 1.80 1.96
1.50 1.55 1.53 1.47 1.38 1.41 1.43 1.36 1.24 1.26 1.31 1.25 1.35 1.61 1.83 2.11 2.51 2.68 2.96 3.11 2.93 2.82 2.84 2.91 2.91 3.12 2.60 2.05 1.89 1.62 1.53 1.55 1.60 1.61 1.63 1.71 1.77 1.87
1.53 1.57 1.55 1.47 1.48 1.46 1.44 1.42 1.28 1.22 1.22 1.22 1.21 1.35 1.58 1.74 2.04 2.36 2.65 2.87 2.94 3.00 3.06 3.12 3.01 3.15 3.41 2.92 2.23 1.89 1.62 1.55 1.58 1.62 1.67 1.78 1.86 1.87
1.62 1.62 1.54 1.46 1.56 1.46 1.31 1.35 1.33 1.35 1.40 1.35 1.35 1.38 1.42 1.59 1.88 2.13 2.41 2.70 2.74 2.82 2.66 2.67 2.69 2.82 3.25 3.40 2.98 2.33 1.88 1.71 1.60 1.55 1.58 1.70 1.86 1.72
1.68 1.70 1.68 1.60 1.35 1.27 1.24 1.25 1.34 1.42 1.49 1.51 1.50 1.53 1.62 1.67 1.74 1.93 2.20 2.45 2.54 2.36 2.14 2.31 2.50 2.61 2.66 2.79 2.91 2.81 2.41 2.08 1.87 1.71 1.66 1.64 1.68 1.64
1.96 1.95 1.91 1.74 1.45 1.32 1.23 1.27 1.36 1.31 1.32 1.44 1.42 1.41 1.49 1.57 1.67 1.86 2.07 2.19 2.25 2.23 2.19 2.32 2.47 2.49 2.58 2.60 2.63 2.66 2.65 2.48 2.29 2.16 2.09 2.07 1.87 1.79
2.17 2.20 2.08 1.84 1.58 1.37 1.30 1.29 1.25 1.18 1.20 1.28 1.24 1.20 1.28 1.38 1.48 1.67 1.89 2.08 2.13 2.05 2.05 2.17 2.29 2.31 2.44 2.51 2.43 2.31 2.38 2.47 2.46 2.43 2.46 2.43 2.27 2.08
2.27 2.22 2.12 1.91 1.64 1.48 1.41 1.30 1.17 1.23 1.26 1.23 1.24 1.25 1.33 1.44 1.56 1.65 1.82 1.98 2.13 2.08 2.02 2.05 2.13 2.26 2.24 2.10 2.04 1.90 1.88 2.00 2.15 2.30 2.50 2.70 2.72 2.60
2.39 2.23 2.12 1.90 1.72 1.64 1.55 1.45 1.38 1.36 1.30 1.26 1.28 1.29 1.31 1.38 1.47 1.53 1.64 1.71 1.77 1.80 1.86 1.95 2.10 2.23 2.22 2.14 2.00 1.78 1.72 1.68 1.73 2.02 2.34 2.57 2.58 2.43
1.87 1.80 1.83 1.78 1.70 1.63 1.58 1.50 1.44 1.38 1.34 1.33 1.32 1.29 1.25 1.27 1.36 1.48 1.59 1.61 1.58 1.58 1.67 1.78 2.02 2.23 2.25 2.07 1.73 1.61 1.60 1.57 1.58 1.79 1.97 2.06 2.02 1.89
1.54 1.57 1.53 1.52 1.50 1.48 1.49 1.44 1.36 1.34 1.38 1.39 1.33 1.33 1.32 1.33 1.37 1.49 1.61 1.66 1.60 1.58 1.69 1.85 1.99 2.13 2.10 1.87 1.64 1.40 1.43 1.48 1.61 1.78 1.85 1.80 1.68 1.52
1.42 1.48 1.48 1.46 1.45 1.48 1.51 1.47 1.44 1.45 1.47 1.49 1.47 1.48 1.51 1.52 1.53 1.54 1.61 1.67 1.64 1.63 1.71 1.82 1.85 1.90 1.91 1.80 1.69 1.51 1.29 1.35 1.44 1.56 1.64 1.65 1.53 1.36
1.51 1.56 1.57 1.58 1.59 1.62 1.60 1.57 1.56 1.53 1.48 1.52 1.53 1.54 1.53 1.54 1.59 1.62 1.68 1.76 1.70 1.63 1.60 1.59 1.67 1.81 1.94 2.12 1.98 1.69 1.50 1.40 1.43 1.47 1.55 1.65 1.64 1.57
1.47 1.52 1.57 1.61 1.65 1.64 1.59 1.55 1.56 1.54 1.51 1.51 1.50 1.49 1.50 1.48 1.51 1.59 1.63 1.65 1.64 1.58 1.51 1.54 1.75 1.96 2.04 2.10 1.98 1.82 1.74 1.66 1.60 1.55 1.47 1.39 1.41 1.42
1.46 1.52 1.52 1.51 1.49 1.46 1.39 1.36 1.42 1.47 1.50 1.51 1.48 1.46 1.46 1.44 1.44 1.53 1.59 1.62 1.63 1.65 1.65 1.71 1.80 1.91 1.96 1.99 2.03 1.97 1.83 1.76 1.74 1.71 1.61 1.41 1.11 0.97

GEFSNE_prec_meanprecacc_312.txt.gz
Total_Precipitation_Accumulation
2.99 3.27 3.13 2.96 2.97 2.95 3.23 3.55 3.56 3.15 2.81 2.60 2.40 2.30 2.28 2.23 2.34 2.17 2.14 2.17 1.95 1.79 1.65 1.54 1.48 1.46 1.54 1.69 1.93 2.18 2.38 2.53 2.66 2.78 2.97 3.21 3.48 3.77
2.90 3.04 3.01 2.93 3.14 3.12 3.22 3.48 3.70 3.63 3.03 2.77 2.64 2.31 2.36 1.98 2.15 2.03 2.00 1.99 1.77 1.65 1.56 1.52 1.49 1.46 1.45 1.48 1.57 1.71 1.89 2.04 2.17 2.26 2.30 2.35 2.43 2.61
2.49 2.58 2.58 2.83 3.01 2.97 3.13 3.30 3.54 3.78 3.35 3.07 3.09 2.80 2.74 2.47 2.23 2.02 1.78 1.73 1.61 1.58 1.45 1.39 1.37 1.37 1.39 1.37 1.36 1.41 1.53 1.65 1.77 1.91 2.08 2.18 2.20 2.25
2.38 2.48 2.35 2.56 2.69 2.74 2.94 3.09 3.35 3.76 3.58 3.30 3.22 3.08 2.94 2.70 2.48 2.22 1.78 1.54 1.56 1.67 1.50 1.36 1.31 1.28 1.30 1.29 1.22 1.19 1.22 1.28 1.34 1.47 1.65 1.82 1.94 2.08
2.20 2.13 2.07 2.26 2.32 2.51 2.68 2.69 2.89 3.30 3.38 3.06 2.94 3.16 3.02 2.80 2.80 2.45 2.14 2.03 1.58 1.58 1.50 1.33 1.26 1.20 1.20 1.25 1.23 1.15 1.12 1.12 1.16 1.27 1.46 1.63 1.75 1.82
1.92 1.81 1.84 2.02 2.02 2.18 2.25 2.45 2.66 2.79 3.00 2.94 2.82 2.94 2.96 2.87 3.02 2.78 2.58 2.41 2.03 1.66 1.65 1.41 1.27 1.21 1.17 1.16 1.18 1.20 1.22 1.20 1.19 1.25 1.32 1.42 1.58 1.69
1.69 1.56 1.50 1.52 1.59 1.76 1.72 2.00 2.30 2.42 2.51 2.64 2.65 2.74 2.95 3.08 2.94 2.92 2.76 2.59 2.38 2.14 2.09 1.67 1.36 1.19 1.16 1.17 1.19 1.25 1.29 1.30 1.31 1.37 1.47 1.52 1.58 1.65
1.66 1.64 1.47 1.36 1.35 1.41 1.43 1.52 1.74 1.88 2.09 2.37 2.44 2.52 2.75 3.03 3.11 3.10 2.99 2.77 2.55 2.35 2.45 2.39 2.00 1.71 1.48 1.23 1.24 1.26 1.35 1.44 1.48 1.55 1.64 1.75 1.86 1.86
1.65 1.62 1.36 1.24 1.31 1.26 1.35 1.36 1.42 1.50 1.62 1.88 2.02 2.07 2.34 2.67 3.02 3.06 3.13 2.94 2.69 2.64 2.71 2.73 2.78 2.51 1.91 1.55 1.49 1.31 1.36 1.47 1.53 1.58 1.64 1.67 1.82 1.99
1.55 1.59 1.57 1.52 1.43 1.46 1.48 1.40 1.28 1.31 1.34 1.30 1.39 1.65 1.87 2.16 2.57 2.73 3.00 3.16 2.99 2.87 2.89 2.94 2.97 3.18 2.65 2.10 1.94 1.67 1.59 1.60 1.64 1.65 1.67 1.73 1.79 1.89
1.56 1.59 1.58 1.51 1.52 1.50 1.48 1.46 1.33 1.27 1.26 1.27 1.26 1.40 1.64 1.79 2.09 2.42 2.71 2.92 2.99 3.05 3.11 3.16 3.06 3.20 3.46 2.98 2.28 1.95 1.69 1.60 1.62 1.66 1.71 1.82 1.90 1.90
1.64 1.64 1.56 1.48 1.58 1.48 1.34 1.39 1.38 1.41 1.47 1.42 1.41 1.44 1.47 1.63 1.93 2.18 2.46 2.76 2.79 2.87 2.72 2.72 2.73 2.87 3.29 3.44 3.02 2.38 1.93 1.76 1.65 1.60 1.63 1.75 1.91 1.76
1.71 1.74 1.72 1.63 1.37 1.29 1.27 1.28 1.37 1.45 1.53 1.55 1.55 1.59 1.66 1.71 1.78 1.96 2.24 2.50 2.59 2.40 2.18 2.35 2.54 2.65 2.71 2.83 2.95 2.85 2.46 2.14 1.93 1.77 1.72 1.71 1.75 1.70
1.98 1.97 1.93 1.75 1.46 1.33 1.24 1.30 1.40 1.34 1.35 1.47 1.46 1.44 1.52 1.60 1.71 1.90 2.11 2.23 2.30 2.29 2.27 2.38 2.52 2.54 2.63 2.65 2.67 2.70 2.69 2.54 2.36 2.24 2.17 2.15 1.94 1.85
2.19 2.21 2.10 1.86 1.60 1.38 1.32 1.31 1.28 1.21 1.23 1.31 1.28 1.24 1.32 1.42 1.52 1.71 1.94 2.13 2.17 2.10 2.12 2.23 2.34 2.37 2.50 2.56 2.47 2.37 2.45 2.54 2.54 2.52 2.55 2.51 2.34 2.16
2.30 2.25 2.14 1.94 1.66 1.50 1.42 1.33 1.21 1.25 1.28 1.25 1.27 1.28 1.37 1.48 1.60 1.69 1.87 2.03 2.18 2.12 2.07 2.10 2.18 2.32 2.31 2.16 2.09 1.95 1.95 2.08 2.24 2.39 2.59 2.78 2.79 2.67
2.42 2.27 2.16 1.94 1.75 1.66 1.57 1.49 1.41 1.39 1.33 1.29 1.32 1.32 1.34 1.41 1.51 1.57 1.69 1.76 1.82 1.84 1.90 1.99 2.15 2.29 2.29 2.20 2.06 1.84 1.80 1.77 1.83 2.12 2.43 2.67 2.66 2.50
1.89 1.83 1.87 1.82 1.73 1.66 1.61 1.53 1.46 1.39 1.37 1.36 1.36 1.33 1.28 1.30 1.40 1.52 1.63 1.65 1.63 1.63 1.72 1.82 2.07 2.29 2.33 2.15 1.80 1.67 1.67 1.65 1.69 1.92 2.09 2.17 2.12 1.97
1.57 1.60 1.56 1.55 1.53 1.52 1.51 1.46 1.38 1.36 1.41 1.43 1.38 1.37 1.36 1.37 1.39 1.52 1.64 1.69 1.63 1.62 1.74 1.89 2.05 2.19 2.17 1.94 1.70 1.46 1.48 1.54 1.69 1.87 1.94 1.90 1.77 1.61
1.45 1.51 1.51 1.49 1.48 1.51 1.54 1.49 1.46 1.47 1.50 1.52 1.50 1.52 1.55 1.55 1.56 1.57 1.64 1.70 1.67 1.67 1.75 1.87 1.92 1.96 1.97 1.86 1.73 1.56 1.33 1.40 1.50 1.62 1.70 1.72 1.62 1.45
1.54 1.58 1.59 1.59 1.61 1.65 1.64 1.60 1.59 1.55 1.52 1.56 1.57 1.58 1.57 1.58 1.64 1.66 1.73 1.80 1.75 1.68 1.65 1.65 1.75 1.88 2.01 2.20 2.05 1.74 1.55 1.46 1.50 1.54 1.63 1.73 1.72 1.65
1.50 1.56 1.60 1.64 1.68 1.68 1.62 1.59 1.60 1.58 1.55 1.55 1.53 1.53 1.54 1.52 1.54 1.63 1.67 1.70 1.69 1.63 1.57 1.62 1.84 2.05 2.12 2.18 2.05 1.87 1.79 1.72 1.67 1.63 1.55 1.47 1.49 1.50
1.50 1.56 1.57 1.55 1.54 1.50 1.43 1.41 1.48 1.53 1.55 1.55 1.52 1.50 1.50 1.48 1.47 1.57 1.63 1.65 1.66 1.69 1.71 1.77 1.86 1.98 2.03 2.06 2.10 2.04 1.89 1.82 1.81 1.78 1.68 1.47 1.17 1.03

GEFSNE_prec_meanprecacc_318.txt.gz
Total_Precipitation_Accumulation
3.06 3.33 3.18 3.02 3.02 3.00 3.28 3.60 3.63 3.20 2.86 2.64 2.44 2.35 2.31 2.26 2.36 2.18 2.16 2.18 1.96 1.80 1.67 1.56 1.50 1.47 1.56 1.71 1.95 2.20 2.41 2.57 2.71 2.82 3.01 3.25 3.52 3.80
2.96 3.09 3.05 2.97 3.18 3.17 3.27 3.54 3.76 3.69 3.07 2.80 2.68 2.36 2.39 2.01 2.18 2.06 2.02 2.01 1.79 1.66 1.57 1.53 1.50 1.48 1.47 1.49 1.58 1.73 1.92 2.07 2.19 2.29 2.33 2.38 2.47 2.65
2.53 2.63 2.62 2.86 3.05 3.01 3.19 3.35 3.60 3.86 3.41 3.10 3.13 2.84 2.79 2.51 2.27 2.06 1.82 1.77 1.63 1.60 1.47 1.40 1.39 1.38 1.41 1.39 1.37 1.44 1.56 1.68 1.80 1.94 2.11 2.20 2.22 2.27
2.41 2.51 2.38 2.60 2.74 2.80 3.01 3.15 3.42 3.85 3.67 3.34 3.26 3.13 3.00 2.77 2.54 2.29 1.82 1.58 1.59 1.69 1.52 1.38 1.32 1.29 1.32 1.31 1.25 1.23 1.26 1.32 1.38 1.50 1.69 1.86 1.98 2.11
2.22 2.16 2.10 2.31 2.37 2.57 2.74 2.75 2.96 3.39 3.47 3.14 2.99 3.21 3.08 2.87 2.89 2.52 2.19 2.08 1.60 1.60 1.52 1.35 1.28 1.22 1.21 1.26 1.25 1.19 1.17 1.17 1.20 1.31 1.51 1.69 1.81 1.87
1.95 1.85 1.88 2.06 2.07 2.24 2.31 2.50 2.72 2.86 3.08 3.02 2.89 2.99 3.01 2.94 3.10 2.86 2.65 2.46 2.06 1.68 1.68 1.44 1.31 1.25 1.20 1.18 1.20 1.23 1.26 1.25 1.24 1.30 1.36 1.47 1.64 1.75
1.71 1.59 1.53 1.55 1.63 1.82 1.77 2.06 2.37 2.49 2.58 2.72 2.73 2.81 3.01 3.16 3.01 2.99 2.83 2.64 2.42 2.18 2.13 1.72 1.41 1.23 1.20 1.20 1.23 1.29 1.34 1.36 1.37 1.44 1.53 1.58 1.64 1.71
1.68 1.66 1.49 1.39 1.39 1.46 1.48 1.56 1.80 1.95 2.17 2.44 2.52 2.58 2.81 3.09 3.17 3.16 3.05 2.82 2.58 2.39 2.51 2.44 2.05 1.75 1.52 1.27 1.27 1.30 1.38 1.48 1.53 1.61 1.70 1.82 1.93 1.92
1.66 1.64 1.38 1.26 1.34 1.29 1.39 1.39 1.47 1.56 1.68 1.95 2.09 2.12 2.39 2.73 3.09 3.13 3.19 2.99 2.74 2.68 2.77 2.78 2.84 2.57 1.97 1.60 1.53 1.34 1.40 1.51 1.58 1.63 1.70 1.74 1.89 2.05
1.56 1.61 1.60 1.55 1.45 1.49 1.52 1.43 1.31 1.34 1.38 1.34 1.45 1.71 1.93 2.22 2.64 2.79 3.06 3.22 3.04 2.93 2.98 3.02 3.04 3.24 2.71 2.14 1.99 1.72 1.63 1.66 1.71 1.71 1.73 1.80 1.87 1.96
1.59 1.62 1.61 1.54 1.54 1.52 1.51 1.50 1.36 1.31 1.30 1.31 1.30 1.46 1.69 1.84 2.15 2.48 2.77 2.98 3.04 3.10 3.20 3.26 3.15 3.30 3.55 3.05 2.35 2.02 1.75 1.67 1.69 1.71 1.76 1.87 1.96 1.97
1.67 1.67 1.59 1.51 1.60 1.49 1.36 1.42 1.42 1.45 1.50 1.45 1.45 1.49 1.52 1.68 1.97 2.22 2.50 2.80 2.83 2.91 2.79 2.81 2.82 2.98 3.39 3.51 3.08 2.43 1.99 1.83 1.70 1.64 1.66 1.79 1.95 1.80
1.72 1.75 1.73 1.65 1.38 1.30 1.28 1.30 1.40 1.48 1.56 1.59 1.59 1.63 1.72 1.76 1.82 1.99 2.27 2.54 2.64 2.45 2.26 2.45 2.63 2.76 2.82 2.92 3.02 2.91 2.50 2.18 1.97 1.80 1.75 1.74 1.78 1.74
1.99 1.98 1.94 1.76 1.47 1.35 1.26 1.32 1.43 1.38 1.38 1.51 1.49 1.47 1.55 1.64 1.75 1.94 2.14 2.27 2.34 2.34 2.34 2.49 2.62 2.64 2.74 2.75 2.74 2.76 2.74 2.58 2.41 2.28 2.20 2.18 1.99 1.90
2.20 2.22 2.11 1.87 1.61 1.40 1.34 1.33 1.31 1.24 1.26 1.35 1.32 1.28 1.34 1.44 1.54 1.75 1.98 2.17 2.22 2.14 2.17 2.30 2.42 2.46 2.61 2.66 2.55 2.44 2.52 2.60 2.60 2.57 2.60 2.56 2.40 2.22
2.31 2.26 2.16 1.96 1.69 1.53 1.45 1.36 1.24 1.28 1.32 1.29 1.31 1.33 1.42 1.52 1.64 1.73 1.91 2.08 2.23 2.17 2.12 2.17 2.26 2.42 2.41 2.27 2.19 2.02 2.02 2.14 2.29 2.45 2.65 2.85 2.87 2.75
2.43 2.29 2.18 1.97 1.78 1.69 1.60 1.52 1.45 1.43 1.37 1.32 1.36 1.38 1.41 1.47 1.54 1.60 1.73 1.81 1.87 1.89 1.96 2.06 2.23 2.38 2.37 2.29 2.16 1.92 1.87 1.83 1.89 2.19 2.51 2.74 2.74 2.58
1.91 1.85 1.89 1.83 1.75 1.68 1.63 1.56 1.50 1.43 1.41 1.40 1.40 1.38 1.35 1.36 1.45 1.56 1.68 1.71 1.69 1.69 1.79 1.90 2.15 2.39 2.42 2.23 1.88 1.75 1.74 1.71 1.74 1.98 2.16 2.25 2.21 2.07
1.61 1.63 1.59 1.57 1.55 1.54 1.53 1.48 1.41 1.40 1.46 1.48 1.44 1.44 1.44 1.44 1.45 1.57 1.70 1.75 1.69 1.68 1.81 1.97 2.13 2.28 2.25 2.01 1.76 1.52 1.55 1.60 1.75 1.93 2.00 1.95 1.82 1.67
1.50 1.54 1.54 1.52 1.52 1.54 1.57 1.52 1.50 1.51 1.55 1.58 1.59 1.61 1.65 1.64 1.64 1.64 1.71 1.77 1.73 1.72 1.81 1.93 1.98 2.02 2.04 1.93 1.81 1.62 1.40 1.48 1.59 1.70 1.77 1.80 1.69 1.53
1.58 1.64 1.65 1.66 1.67 1.71 1.70 1.66 1.66 1.62 1.58 1.63 1.65 1.67 1.67 1.68 1.73 1.75 1.80 1.87 1.80 1.73 1.70 1.70 1.79 1.94 2.09 2.30 2.15 1.81 1.61 1.54 1.59 1.63 1.71 1.81 1.80 1.74
1.55 1.61 1.65 1.70 1.75 1.76 1.70 1.66 1.67 1.65 1.63 1.64 1.62 1.62 1.64 1.62 1.63 1.70 1.73 1.75 1.73 1.68 1.62 1.67 1.89 2.13 2.22 2.28 2.14 1.95 1.87 1.80 1.75 1.72 1.66 1.57 1.57 1.56
1.56 1.61 1.62 1.60 1.60 1.58 1.51 1.50 1.56 1.62 1.65 1.66 1.62 1.60 1.60 1.59 1.58 1.65 1.69 1.71 1.72 1.74 1.76 1.83 1.93 2.06 2.12 2.15 2.20 2.15 2.00 1.91 1.89 1.86 1.74 1.53 1.24 1.10

GEFSNE_prec_meanprecacc_324.txt.gz
Total_Precipitation_Accumulation
3.12 3.40 3.23 3.06 3.06 3.04 3.33 3.65 3.68 3.24 2.88 2.67 2.47 2.38 2.33 2.29 2.39 2.21 2.19 2.21 1.99 1.83 1.69 1.58 1.52 1.49 1.59 1.74 1.98 2.23 2.44 2.62 2.77 2.91 3.11 3.36 3.63 3.90
3.00 3.16 3.13 3.05 3.23 3.21 3.32 3.60 3.83 3.74 3.10 2.82 2.70 2.39 2.43 2.03 2.20 2.07 2.05 2.04 1.82 1.69 1.60 1.56 1.54 1.52 1.50 1.52 1.61 1.75 1.94 2.11 2.24 2.34 2.39 2.44 2.55 2.74
2.55 2.65 2.65 2.91 3.11 3.07 3.23 3.40 3.66 3.93 3.46 3.13 3.15 2.87 2.83 2.54 2.29 2.08 1.84 1.80 1.67 1.64 1.50 1.44 1.42 1.42 1.45 1.42 1.40 1.47 1.59 1.71 1.83 1.97 2.16 2.26 2.28 2.33
2.42 2.52 2.39 2.62 2.77 2.84 3.04 3.20 3.47 3.92 3.74 3.40 3.29 3.17 3.05 2.81 2.58 2.32 1.86 1.62 1.63 1.73 1.56 1.42 1.36 1.34 1.35 1.34 1.29 1.26 1.28 1.34 1.41 1.54 1.74 1.92 2.04 2.17
2.24 2.17 2.11 2.32 2.39 2.60 2.78 2.80 3.01 3.44 3.53 3.19 3.03 3.26 3.12 2.91 2.94 2.56 2.24 2.15 1.66 1.66 1.57 1.39 1.32 1.25 1.25 1.30 1.30 1.22 1.18 1.19 1.22 1.33 1.54 1.73 1.86 1.93
1.97 1.87 1.91 2.09 2.10 2.27 2.35 2.56 2.78 2.91 3.14 3.07 2.94 3.05 3.06 2.98 3.15 2.92 2.72 2.54 2.15 1.74 1.73 1.49 1.35 1.28 1.23 1.21 1.23 1.25 1.28 1.27 1.27 1.33 1.39 1.50 1.68 1.79
1.72 1.60 1.55 1.57 1.67 1.86 1.83 2.11 2.42 2.54 2.63 2.77 2.77 2.87 3.08 3.22 3.07 3.06 2.90 2.73 2.51 2.25 2.19 1.77 1.45 1.26 1.22 1.22 1.25 1.31 1.36 1.39 1.41 1.48 1.56 1.62 1.68 1.76
1.69 1.67 1.50 1.40 1.42 1.50 1.53 1.61 1.85 2.01 2.22 2.49 2.56 2.63 2.86 3.14 3.23 3.24 3.14 2.91 2.66 2.45 2.56 2.48 2.08 1.77 1.54 1.29 1.29 1.33 1.41 1.51 1.56 1.64 1.74 1.86 1.97 1.98
1.67 1.65 1.39 1.27 1.37 1.31 1.42 1.45 1.53 1.61 1.73 2.00 2.14 2.18 2.45 2.77 3.14 3.17 3.24 3.03 2.78 2.73 2.82 2.81 2.86 2.59 1.99 1.63 1.57 1.37 1.43 1.55 1.62 1.68 1.75 1.80 1.96 2.13
1.58 1.63 1.61 1.56 1.47 1.51 1.54 1.46 1.34 1.37 1.42 1.38 1.49 1.76 1.98 2.26 2.66 2.81 3.08 3.25 3.07 2.96 3.00 3.04 3.07 3.28 2.74 2.17 2.03 1.74 1.66 1.69 1.75 1.76 1.79 1.86 1.94 2.05
1.60 1.64 1.63 1.56 1.56 1.54 1.52 1.51 1.38 1.32 1.32 1.33 1.34 1.50 1.74 1.87 2.17 2.50 2.79 3.01 3.07 3.13 3.22 3.29 3.19 3.34 3.59 3.10 2.41 2.07 1.80 1.72 1.75 1.80 1.84 1.94 2.02 2.05
1.68 1.68 1.60 1.52 1.61 1.51 1.37 1.43 1.42 1.46 1.51 1.47 1.48 1.53 1.57 1.71 2.00 2.24 2.51 2.82 2.86 2.94 2.80 2.84 2.86 3.01 3.42 3.54 3.11 2.46 2.03 1.88 1.76 1.71 1.73 1.85 2.02 1.87
1.73 1.76 1.74 1.66 1.39 1.31 1.29 1.31 1.41 1.50 1.57 1.60 1.61 1.66 1.76 1.80 1.84 2.01 2.29 2.56 2.66 2.48 2.28 2.48 2.67 2.81 2.87 2.96 3.07 2.95 2.53 2.22 2.02 1.85 1.80 1.79 1.83 1.78
2.00 1.99 1.95 1.77 1.47 1.35 1.26 1.32 1.44 1.40 1.39 1.52 1.52 1.50 1.59 1.68 1.77 1.97 2.17 2.30 2.37 2.36 2.37 2.54 2.66 2.69 2.80 2.80 2.79 2.81 2.79 2.62 2.44 2.31 2.24 2.23 2.03 1.94
2.20 2.23 2.11 1.88 1.61 1.40 1.34 1.34 1.32 1.26 1.27 1.36 1.34 1.30 1.37 1.47 1.58 1.79 2.01 2.21 2.25 2.17 2.20 2.34 2.47 2.51 2.66 2.71 2.59 2.48 2.56 2.65 2.63 2.60 2.63 2.60 2.42 2.24
2.33 2.27 2.17 1.97 1.70 1.53 1.45 1.36 1.26 1.30 1.33 1.30 1.32 1.35 1.45 1.57 1.68 1.77 1.95 2.12 2.28 2.20 2.15 2.20 2.30 2.48 2.47 2.32 2.25 2.07 2.07 2.18 2.34 2.50 2.69 2.89 2.90 2.78
2.45 2.30 2.19 1.98 1.79 1.69 1.61 1.52 1.46 1.44 1.38 1.33 1.38 1.40 1.44 1.52 1.60 1.65 1.77 1.85 1.91 1.92 1.99 2.10 2.28 2.44 2.44 2.36 2.21 1.97 1.92 1.87 1.93 2.24 2.57 2.79 2.78 2.62
1.93 1.86 1.91 1.84 1.75 1.68 1.64 1.57 1.51 1.45 1.42 1.41 1.42 1.41 1.40 1.42 1.51 1.62 1.73 1.75 1.73 1.74 1.84 1.96 2.21 2.46 2.49 2.29 1.94 1.80 1.78 1.75 1.78 2.02 2.21 2.30 2.25 2.12
1.64 1.65 1.61 1.59 1.56 1.55 1.55 1.50 1.43 1.42 1.48 1.51 1.47 1.49 1.52 1.51 1.51 1.63 1.76 1.82 1.76 1.75 1.86 2.03 2.20 2.34 2.31 2.06 1.80 1.56 1.59 1.65 1.80 1.97 2.05 2.01 1.88 1.73
1.53 1.58 1.59 1.57 1.56 1.58 1.61 1.56 1.53 1.54 1.58 1.61 1.62 1.65 1.70 1.70 1.71 1.72 1.79 1.85 1.81 1.80 1.88 2.00 2.05 2.09 2.10 2.00 1.88 1.67 1.45 1.54 1.65 1.76 1.83 1.86 1.75 1.58
1.62 1.68 1.70 1.71 1.72 1.74 1.73 1.70 1.69 1.65 1.61 1.66 1.68 1.70 1.71 1.74 1.82 1.82 1.86 1.93 1.87 1.80 1.76 1.76 1.85 2.01 2.16 2.39 2.23 1.86 1.65 1.59 1.64 1.69 1.78 1.89 1.87 1.81
1.61 1.66 1.71 1.75 1.80 1.80 1.74 1.70 1.71 1.70 1.67 1.68 1.66 1.66 1.69 1.68 1.71 1.78 1.80 1.82 1.79 1.74 1.69 1.74 1.97 2.20 2.29 2.35 2.19 1.99 1.91 1.84 1.81 1.78 1.71 1.64 1.66 1.65
1.64 1.69 1.69 1.65 1.65 1.62 1.56 1.54 1.61 1.67 1.71 1.71 1.66 1.64 1.65 1.64 1.65 1.74 1.80 1.81 1.81 1.82 1.83 1.89 1.99 2.11 2.17 2.21 2.26 2.20 2.04 1.96 1.95 1.92 1.80 1.59 1.29 1.14